This is the latest recevied weather packets stored in our database for station/object KD0KHX-10. If no packets are shown the sender has not sent any weather packets the latest 10 day(s).
| Time | Temp. | Humidity | Pressure | Rain* | Wind** | Luminosity | Snow |
|---|---|---|---|---|---|---|---|
| 1777834172 | 25° C | 22% | 1005.5 hPa | 0 mm | - | - | - |
| 1777833873 | 25° C | 22% | 1005.6 hPa | 0 mm | - | - | - |
| 1777833303 | 24.44° C | 23% | 1005.9 hPa | 0 mm | - | - | - |
| 1777833003 | 24.44° C | 23% | 1005.9 hPa | 0 mm | - | - | - |
| 1777832972 | 23.89° C | 23% | 1005.9 hPa | 0 mm | - | - | - |
| 1777832403 | 24.44° C | 22% | 1006 hPa | 0 mm | - | - | - |
| 1777832103 | 25° C | 22% | 1006.1 hPa | 0 mm | - | - | - |
| 1777831938 | 25° C | 22% | 1006.2 hPa | 0 mm | - | - | - |
| 1777831503 | 24.44° C | 23% | 1006.4 hPa | 0 mm | - | - | - |
| 1777831203 | 24.44° C | 22% | 1006.6 hPa | 0 mm | - | - | - |
| 1777831172 | 24.44° C | 22% | 1006.6 hPa | 0 mm | - | - | - |
| 1777830603 | 23.89° C | 24% | 1006.8 hPa | 0 mm | - | - | - |
| 1777830574 | 23.89° C | 24% | 1006.8 hPa | 0 mm | - | - | - |
| 1777830003 | 23.89° C | 23% | 1006.9 hPa | 0 mm | - | - | - |
| 1777829403 | 23.89° C | 23% | 1007.1 hPa | 0 mm | - | - | - |
| 1777829238 | 23.89° C | 23% | 1007.1 hPa | 0 mm | - | - | - |
| 1777828803 | 23.33° C | 23% | 1007.2 hPa | 0 mm | - | - | - |
| 1777828503 | 23.33° C | 24% | 1007.3 hPa | 0 mm | - | - | - |
| 1777828337 | 23.33° C | 24% | 1007.3 hPa | 0 mm | - | - | - |
| 1777828038 | 23.33° C | 24% | 1007.4 hPa | 0 mm | - | - | - |
| 1777827603 | 23.33° C | 23% | 1007.5 hPa | 0 mm | - | - | - |
| 1777827303 | 23.33° C | 24% | 1007.5 hPa | 0 mm | - | - | - |
| 1777827003 | 23.33° C | 24% | 1007.5 hPa | 0 mm | - | - | - |
| 1777826973 | 23.33° C | 24% | 1007.6 hPa | 0 mm | - | - | - |
| 1777826403 | 23.33° C | 25% | 1007.5 hPa | 0 mm | - | - | - |
* Rain latest hour (hover to see other rain measurements)
** Current wind speed in m/s (hover to see current wind gust speed)